{"data":{"norad_id":43250,"intl_designator":"2018-030B","name":"IRIDIUM 149","alt_names":[],"object_type":"PAYLOAD","status":"ACTIVE","operator":null,"country":"US","launch_date":"2018-03-30","launch_site_code":"AFWTR","launch_vehicle":null,"mission":null,"orbit_class":"UNKNOWN","rcs_meters":null,"size_class":null,"mass_kg":null,"dimensions":null,"purposes":["comms"],"wikipedia_slug":null,"has_3d_model":false,"image_url":null,"decayed_at":null,"tle_current":{"epoch":"2026-09-19T11:51:39.369024Z","epoch_age_seconds":102514,"freshness":"FRESH","line1":"1 43250U 18030B   26262.49420566  .00000056  00000+0  12864-4 0  9995","line2":"2 43250  86.3913 250.9150 0002339  88.4051 271.7413 14.34217793443671","mean_motion":14.34217793,"eccentricity":0.0002339,"inclination_deg":86.3913,"raan_deg":250.915,"arg_perigee_deg":88.4051,"mean_anomaly_deg":271.7413,"bstar":1.2864e-5,"rev_number":44367,"period_min":100.40316101419,"perigee_km":775.99326876741,"apogee_km":779.34075388391,"semimajor_km":7155.8040113257,"source":"CELESTRAK","updated_at":"2026-09-20T09:00:36.328610Z"}}}